Regional Weather Roundup
Issued by NWS Sioux Falls, SD

Home | Current Version | Previous Version | Graphics & Text | Print | Product List | Glossary On
Versions: 1 2 3 4 5 6 7 8 9 10 11 12 13 14 15 16 17 18 19 20 21 22 23 24 25 26 27 28 29 30 31 32 33 34 35 36 37 38 39 40 41 42 43 44 45 46 47 48 49 50
000
ASUS43 KFSD 200302
RWRFSD

WEATHER ROUNDUP FOR SE SOUTH DAKOTA/SW MINNESOTA/NW IOWA
NATIONAL WEATHER SERVICE SIOUX FALLS SD
1000 PM CDT TUE SEP 19 2017

NOTE: "FAIR" INDICATES FEW OR NO CLOUDS BELOW 12,000 FEET WITH NO
SIGNIFICANT WEATHER AND OR OBSTRUCTIONS TO VISIBILITY.


SDZ038>040-050-052>070-200400-
SOUTHEAST SOUTH DAKOTA

CITY           SKY/WX    TMP DP  RH WIND       PRES   REMARKS
BROOKINGS      PTCLDY    74  67  78 S23G33    29.46F
CHAMBERLAIN    CLOUDY    69  50  51 NW18G35   29.57R
HURON          CLOUDY    66  58  75 NW23G39   29.50F
MADISON        FAIR      75  72  88 S23G33    29.45F
MITCHELL       CLOUDY    78  68  71 S15G23    29.41F
SIOUX FALLS    LGT RAIN  77  68  73 S21G30    29.45F
WINNER         MOCLDY    67  47  48 NW20G31   29.62R
YANKTON        CLEAR     79  69  71 SE23G33   29.43F
$$

MNZ071-072-080-081-089-090-097-098-200400-
SOUTHWEST MINNESOTA

CITY           SKY/WX    TMP DP  RH WIND       PRES   REMARKS
FAIRMONT       CLEAR     72  66  81 SE22G32   29.63F
JACKSON        PTCLDY    72  64  78 SE21G28   29.61F
LUVERNE        CLOUDY    73  63  68 S18G33    29.50F
MARSHALL       CLEAR     74  68  81 S20G31    29.49F
MONTEVIDEO     CLOUDY    73  66  78 S18G24    29.48F
PIPESTONE      CLEAR     75  66  73 S22G30    29.48F
REDWOOD FALLS  CLOUDY    73  65  75 SE20G29   29.54F
TRACY          CLOUDY    74  69  85 S22G28    29.52F
WORTHINGTON    PTCLDY    73  66  78 SE14G28   29.57F
$$

IAZ001>003-012>014-020>022-031-032-NEZ013-014-SDZ071-200400-
NORTHWEST IOWA

CITY           SKY/WX    TMP DP  RH WIND       PRES   REMARKS
CHEROKEE       PTCLDY    75  68  78 SE17G24   29.60F
DENISON        MOCLDY    77  68  73 SE18G31   29.64F
ESTHERVILLE    CLEAR     71  66  84 SE18G25   29.63F
LE MARS        CLOUDY    77  68  73 SE22G32   29.53F
ORANGE CITY    CLOUDY    75  70  83 S14G30    29.55F
SHELDON        CLOUDY    75  66  73 SE23G31   29.54F
SIOUX CITY     CLOUDY    78  69  73 SE20G26   29.53F
SPENCER        CLOUDY    74  67  78 SE23G30   29.60F
STORM LAKE     MOCLDY    73  66  78 SE14G28   29.63F
$$

ABBREVIATIONS USED IN REMARKS
   TC - TEMPERATURE IN CELSIUS
  WCI - WIND CHILL INDEX
   HX - HEAT INDEX
  VSB - VISIBILITY





USA.gov is the U.S. government's official web portal to all federal, state and local government web resources and services.